TimeEDT,TemperatureF,Dew PointF,Humidity,Sea Level PressureIn,VisibilityMPH,Wind Direction,Wind SpeedMPH,Gust SpeedMPH,PrecipitationIn,Events,Conditions,WindDirDegrees,DateUTC
12:15 AM,76.3,74.1,93,29.70,10.0,Calm,Calm,-,N/A,,Mostly Cloudy,0,2013-06-30 04:15:00
12:35 AM,74.8,73.6,96,29.71,10.0,Calm,Calm,-,N/A,,Mostly Cloudy,0,2013-06-30 04:35:00
12:55 AM,74.1,73.6,98,29.71,10.0,Calm,Calm,-,N/A,,Clear,0,2013-06-30 04:55:00
1:15 AM,72.7,72.7,100,29.72,10.0,Calm,Calm,-,N/A,,Scattered Clouds,0,2013-06-30 05:15:00
1:35 AM,73.0,73.0,100,29.71,10.0,Calm,Calm,-,N/A,,Clear,0,2013-06-30 05:35:00
1:55 AM,73.0,73.0,100,29.71,10.0,Calm,Calm,-,N/A,,Clear,0,2013-06-30 05:55:00
2:15 AM,73.0,73.0,100,29.71,10.0,Calm,Calm,-,N/A,,Clear,0,2013-06-30 06:15:00
2:35 AM,73.9,73.9,100,29.71,10.0,Calm,Calm,-,N/A,,Clear,0,2013-06-30 06:35:00
2:55 AM,72.7,72.7,100,29.70,10.0,Calm,Calm,-,N/A,,Clear,0,2013-06-30 06:55:00
3:15 AM,71.8,71.8,100,29.71,7.0,Calm,Calm,-,N/A,,Clear,0,2013-06-30 07:15:00
3:35 AM,70.5,70.5,100,29.70,7.0,Calm,Calm,-,N/A,,Clear,0,2013-06-30 07:35:00
3:55 AM,70.9,70.9,100,29.71,3.0,Calm,Calm,-,N/A,,Clear,0,2013-06-30 07:55:00
4:15 AM,70.2,70.2,100,29.71,1.2,Calm,Calm,-,N/A,,Mist,0,2013-06-30 08:15:00
4:35 AM,69.1,69.1,100,29.71,0.8,Calm,Calm,-,N/A,,Mist,0,2013-06-30 08:35:00
4:55 AM,69.3,69.3,100,29.71,1.0,Calm,Calm,-,N/A,,Mist,0,2013-06-30 08:55:00
5:15 AM,68.0,68.0,100,29.72,0.5,Calm,Calm,-,N/A,Fog,Fog,0,2013-06-30 09:15:00
5:35 AM,68.9,68.9,100,29.73,1.2,Calm,Calm,-,N/A,,Scattered Clouds,0,2013-06-30 09:35:00
5:55 AM,70.0,70.0,100,29.74,5.0,Calm,Calm,-,N/A,,Mostly Cloudy,0,2013-06-30 09:55:00
6:15 AM,71.6,71.6,100,29.74,5.0,Calm,Calm,-,N/A,,Overcast,0,2013-06-30 10:15:00
6:35 AM,72.7,72.7,100,29.74,4.0,Calm,Calm,-,N/A,,Overcast,0,2013-06-30 10:35:00
6:55 AM,73.4,73.4,100,29.75,5.0,Calm,Calm,-,N/A,,Overcast,0,2013-06-30 10:55:00
7:15 AM,73.8,73.8,100,29.77,5.0,Calm,Calm,-,N/A,,Overcast,0,2013-06-30 11:15:00
7:35 AM,74.3,74.3,100,29.77,7.0,Calm,Calm,-,N/A,,Overcast,0,2013-06-30 11:35:00
7:55 AM,74.3,74.3,100,29.77,7.0,Calm,Calm,-,N/A,,Overcast,0,2013-06-30 11:55:00
8:15 AM,74.5,74.5,100,29.78,7.0,Calm,Calm,-,N/A,,Overcast,0,2013-06-30 12:15:00
8:35 AM,75.4,75.4,100,29.79,7.0,Calm,Calm,-,N/A,,Overcast,0,2013-06-30 12:35:00
8:55 AM,75.4,75.4,100,29.79,7.0,Calm,Calm,-,N/A,Thunderstorm,Overcast,0,2013-06-30 12:55:00
9:15 AM,76.1,76.1,100,29.79,5.0,Calm,Calm,-,N/A,,Overcast,0,2013-06-30 13:15:00
9:35 AM,76.5,76.5,100,29.79,7.0,Calm,Calm,-,N/A,,Overcast,0,2013-06-30 13:35:00
9:55 AM,77.5,77.2,99,29.79,7.0,Calm,Calm,-,N/A,,Overcast,0,2013-06-30 13:55:00
10:15 AM,78.4,77.4,96,29.79,10.0,SW,3.5,-,N/A,,Overcast,220,2013-06-30 14:15:00
10:35 AM,79.3,77.9,95,29.79,10.0,WSW,3.5,-,N/A,,Mostly Cloudy,240,2013-06-30 14:35:00
10:55 AM,80.2,77.7,92,29.79,10.0,Calm,Calm,-,N/A,,Mostly Cloudy,0,2013-06-30 14:55:00
11:15 AM,81.3,78.3,90,29.79,10.0,South,3.5,-,N/A,Thunderstorm,Thunderstorm,170,2013-06-30 15:15:00
11:35 AM,82.8,78.4,87,29.79,10.0,SE,3.5,-,N/A,,Mostly Cloudy,130,2013-06-30 15:35:00
11:55 AM,82.8,78.4,87,29.78,10.0,SE,3.5,-,N/A,,Mostly Cloudy,130,2013-06-30 15:55:00
12:15 PM,83.8,78.8,85,29.78,10.0,SE,3.5,-,N/A,,Mostly Cloudy,140,2013-06-30 16:15:00
12:35 PM,84.7,77.5,79,29.78,10.0,Calm,Calm,-,N/A,,Scattered Clouds,0,2013-06-30 16:35:00
12:55 PM,85.1,77.7,78,29.78,10.0,Calm,Calm,-,N/A,,Mostly Cloudy,0,2013-06-30 16:55:00
1:15 PM,86.4,78.6,78,29.78,10.0,East,3.5,-,N/A,,Scattered Clouds,90,2013-06-30 17:15:00
1:35 PM,85.5,78.4,79,29.77,10.0,South,4.6,-,N/A,,Scattered Clouds,180,2013-06-30 17:35:00
1:55 PM,87.6,79.5,77,29.77,10.0,Calm,Calm,-,N/A,,Mostly Cloudy,0,2013-06-30 17:55:00
2:15 PM,82.4,78.8,89,29.77,10.0,SE,10.4,-,N/A,,Overcast,130,2013-06-30 18:15:00
2:35 PM,83.8,80.4,89,29.77,10.0,ESE,6.9,-,N/A,,Mostly Cloudy,110,2013-06-30 18:35:00
2:55 PM,84.7,80.1,86,29.77,10.0,SE,6.9,-,N/A,,Mostly Cloudy,130,2013-06-30 18:55:00
3:15 PM,84.6,81.0,89,29.77,10.0,ESE,6.9,-,N/A,Rain,Light Rain,120,2013-06-30 19:15:00
3:35 PM,86.7,79.0,78,29.77,10.0,South,6.9,-,N/A,,Scattered Clouds,170,2013-06-30 19:35:00
3:55 PM,85.8,77.4,76,29.76,10.0,SE,4.6,-,N/A,,Clear,130,2013-06-30 19:55:00
4:15 PM,84.7,77.7,79,29.77,10.0,South,3.5,-,N/A,,Clear,170,2013-06-30 20:15:00
4:35 PM,84.2,77.5,80,29.77,10.0,South,4.6,-,N/A,,Scattered Clouds,170,2013-06-30 20:35:00
4:55 PM,84.7,78.4,81,29.77,10.0,SSE,5.8,-,N/A,,Scattered Clouds,160,2013-06-30 20:55:00
5:15 PM,85.3,79.2,82,29.77,10.0,South,3.5,-,N/A,,Scattered Clouds,170,2013-06-30 21:15:00
5:35 PM,85.8,78.1,78,29.78,10.0,SSW,8.1,-,N/A,,Clear,200,2013-06-30 21:35:00
5:55 PM,85.1,77.2,77,29.78,10.0,South,4.6,-,N/A,,Clear,190,2013-06-30 21:55:00
6:15 PM,84.2,77.2,79,29.78,10.0,Calm,Calm,-,N/A,,Clear,0,2013-06-30 22:15:00
6:35 PM,83.5,77.9,83,29.77,10.0,Calm,Calm,-,N/A,,Clear,0,2013-06-30 22:35:00
6:55 PM,82.8,78.6,87,29.78,10.0,Calm,Calm,-,N/A,,Clear,0,2013-06-30 22:55:00
7:15 PM,82.4,78.6,88,29.79,10.0,Calm,Calm,-,N/A,,Scattered Clouds,0,2013-06-30 23:15:00
7:35 PM,81.5,77.9,89,29.80,10.0,SW,4.6,-,N/A,,Clear,220,2013-06-30 23:35:00
7:55 PM,80.6,77.7,91,29.81,10.0,Calm,Calm,-,N/A,,Clear,0,2013-06-30 23:55:00
8:15 PM,79.7,77.0,91,29.82,10.0,SSW,3.5,-,N/A,,Scattered Clouds,210,2013-07-01 00:15:00
8:35 PM,79.2,77.0,93,29.82,10.0,Calm,Calm,-,N/A,,Scattered Clouds,0,2013-07-01 00:35:00
8:55 PM,78.8,76.8,94,29.83,10.0,SW,3.5,-,N/A,,Clear,220,2013-07-01 00:55:00
9:15 PM,78.1,76.5,95,29.83,10.0,SSW,5.8,-,N/A,,Clear,200,2013-07-01 01:15:00
9:35 PM,77.9,75.2,91,29.84,10.0,SW,4.6,-,N/A,,Scattered Clouds,220,2013-07-01 01:35:00
9:55 PM,75.7,74.5,96,29.85,10.0,SSW,5.8,-,N/A,Rain,Light Rain,210,2013-07-01 01:55:00
10:15 PM,74.5,74.5,100,29.85,10.0,South,5.8,-,N/A,,Drizzle,190,2013-07-01 02:15:00
10:35 PM,73.9,73.9,100,29.86,10.0,South,3.5,-,N/A,,Scattered Clouds,180,2013-07-01 02:35:00
10:55 PM,73.8,73.8,100,29.86,10.0,Calm,Calm,-,N/A,,Clear,0,2013-07-01 02:55:00
11:15 PM,73.4,73.4,100,29.86,10.0,ESE,3.5,-,N/A,,Clear,120,2013-07-01 03:15:00
11:35 PM,73.0,73.0,100,29.86,10.0,SE,4.6,-,N/A,,Clear,140,2013-07-01 03:35:00
11:55 PM,73.0,73.0,100,29.87,10.0,Calm,Calm,-,N/A,,Clear,0,2013-07-01 03:55:00